SIA225K VHHH-VDTI

Flight info

Callsign SIA225K
Flight time 2h 48m
Altitude 40000
Route PECAN V10 ALLEY V31 SURFA V11 IDOSI P901 IKELA/K0907F400 A1 PAPRA/N0490F400 R575 VIBUN N639 ELNAK ELNAK1D
Aircraft A359/H-SDE2E3GHIJ3J4J5LM1ORWXY/LB1D1

Departure

Time 2026-05-05 11:22
Airport Hong Kong International Airport (VHHH)

Arrival

Time 2026-05-05 14:10
Airport Techo International Airport (VDTI)
Time Latitude Longitude Altitude Speed Heading
2026-05-05 11:06 22.30770 113.89985 39 ft 0 kts 341°
2026-05-05 11:14 22.30767 113.89986 38 ft 2 kts 341°
2026-05-05 11:15 22.30742 113.89995 37 ft 4 kts 341°
2026-05-05 11:15 22.30711 113.90007 37 ft 2 kts 341°
2026-05-05 11:15 22.30690 113.90011 37 ft 4 kts 31°
2026-05-05 11:15 22.30678 113.89992 37 ft 4 kts 71°
2026-05-05 11:16 22.30672 113.89973 37 ft 4 kts 71°
2026-05-05 11:16 22.30668 113.89962 38 ft 0 kts 71°
2026-05-05 11:18 22.30683 113.90007 36 ft 12 kts 71°
2026-05-05 11:18 22.30726 113.90090 38 ft 13 kts 34°
2026-05-05 11:18 22.30816 113.90072 38 ft 15 kts 340°
2026-05-05 11:19 22.30925 113.90031 38 ft 18 kts 338°
2026-05-05 11:19 22.30945 113.89918 38 ft 18 kts 253°
2026-05-05 11:19 22.30937 113.89833 38 ft 9 kts 297°
2026-05-05 11:19 22.31000 113.89791 36 ft 14 kts 339°
2026-05-05 11:20 22.31086 113.89808 36 ft 14 kts 45°
2026-05-05 11:20 22.31127 113.89900 36 ft 8 kts 72°
2026-05-05 11:20 22.31128 113.89904 36 ft 0 kts 72°
2026-05-05 11:21 22.31179 113.90069 37 ft 61 kts 70°
2026-05-05 11:21 22.31402 113.90758 38 ft 131 kts 71°
2026-05-05 11:21 22.31759 113.91873 259 ft 168 kts 72°
2026-05-05 11:22 22.32136 113.93053 1069 ft 172 kts 71°
2026-05-05 11:22 22.32554 113.94348 1601 ft 196 kts 72°
2026-05-05 11:22 22.33030 113.95821 2076 ft 216 kts 72°
2026-05-05 11:22 22.33437 113.97399 2863 ft 220 kts 80°
2026-05-05 11:23 22.33724 113.99053 3608 ft 229 kts 83°
2026-05-05 11:23 22.33792 114.00794 4298 ft 237 kts 98°
2026-05-05 11:23 22.33339 114.02513 5011 ft 241 kts 118°
2026-05-05 11:23 22.32340 114.03956 5781 ft 242 kts 140°
2026-05-05 11:24 22.30974 114.05023 6605 ft 243 kts 151°
2026-05-05 11:24 22.29513 114.05964 7446 ft 246 kts 152°
2026-05-05 11:24 22.28028 114.06907 8315 ft 249 kts 152°
2026-05-05 11:24 22.26526 114.07868 9216 ft 252 kts 152°
2026-05-05 11:25 22.24925 114.08586 10020 ft 253 kts 172°
2026-05-05 11:25 22.23162 114.08732 10675 ft 261 kts 183°
2026-05-05 11:25 22.21261 114.08707 11014 ft 285 kts 184°
2026-05-05 11:25 22.19189 114.08669 11344 ft 310 kts 183°
2026-05-05 11:26 22.16974 114.09092 11618 ft 339 kts 161°
2026-05-05 11:26 22.14962 114.10579 11916 ft 367 kts 135°
2026-05-05 11:26 22.13550 114.12939 12399 ft 382 kts 116°
2026-05-05 11:26 22.12451 114.15583 13015 ft 390 kts 116°
2026-05-05 11:27 22.11312 114.18269 13638 ft 397 kts 117°
2026-05-05 11:27 22.10107 114.20976 14189 ft 403 kts 118°
2026-05-05 11:27 22.08854 114.23697 14754 ft 407 kts 119°
2026-05-05 11:27 22.07301 114.26251 15290 ft 407 kts 135°
2026-05-05 11:28 22.05205 114.28232 15852 ft 407 kts 147°
2026-05-05 11:28 22.02888 114.30068 16398 ft 410 kts 148°
2026-05-05 11:28 22.00566 114.31820 16960 ft 413 kts 152°
2026-05-05 11:28 21.98003 114.33172 17500 ft 409 kts 166°
2026-05-05 11:29 21.95238 114.33780 18043 ft 403 kts 181°
2026-05-05 11:29 21.92468 114.33604 18558 ft 397 kts 196°
2026-05-05 11:29 21.89865 114.32692 19048 ft 391 kts 210°
2026-05-05 11:29 21.87584 114.31137 19547 ft 387 kts 224°
2026-05-05 11:30 21.85737 114.29038 20040 ft 385 kts 237°
2026-05-05 11:30 21.84276 114.26620 20525 ft 387 kts 239°
2026-05-05 11:30 21.82577 114.24342 21015 ft 394 kts 228°
2026-05-05 11:30 21.80497 114.22385 21553 ft 399 kts 223°
2026-05-05 11:31 21.78344 114.20539 22063 ft 403 kts 222°
2026-05-05 11:31 21.76135 114.18667 22579 ft 406 kts 222°
2026-05-05 11:31 21.73909 114.16781 23069 ft 409 kts 222°
2026-05-05 11:31 21.71667 114.14880 23555 ft 412 kts 222°
2026-05-05 11:32 21.69406 114.12962 23958 ft 415 kts 222°
2026-05-05 11:32 21.67118 114.11041 24369 ft 419 kts 221°
2026-05-05 11:32 21.64634 114.09343 24793 ft 428 kts 212°
2026-05-05 11:32 21.61839 114.08147 25240 ft 438 kts 201°
2026-05-05 11:33 21.58866 114.07316 25699 ft 444 kts 199°
2026-05-05 11:33 21.55849 114.06548 26153 ft 448 kts 199°
2026-05-05 11:33 21.52800 114.05773 26587 ft 452 kts 199°
2026-05-05 11:33 21.49731 114.04988 27066 ft 456 kts 199°
2026-05-05 11:34 21.46645 114.04170 27532 ft 458 kts 201°
2026-05-05 11:34 21.43656 114.03026 27986 ft 454 kts 210°
2026-05-05 11:34 21.40885 114.01411 28461 ft 453 kts 217°
2026-05-05 11:34 21.38245 113.99638 28908 ft 455 kts 218°
2026-05-05 11:35 21.35596 113.97761 29355 ft 458 kts 219°
2026-05-05 11:35 21.32949 113.95849 29799 ft 461 kts 220°
2026-05-05 11:35 21.30281 113.93918 30178 ft 464 kts 219°
2026-05-05 11:35 21.27584 113.91978 30486 ft 469 kts 219°
2026-05-05 11:36 21.24860 113.90034 30854 ft 472 kts 219°
2026-05-05 11:36 21.22115 113.88087 31225 ft 474 kts 219°
2026-05-05 11:36 21.19356 113.86139 31581 ft 476 kts 219°
2026-05-05 11:36 21.16582 113.84184 31923 ft 479 kts 219°
2026-05-05 11:37 21.13787 113.82217 32260 ft 481 kts 219°
2026-05-05 11:37 21.10980 113.80242 32564 ft 484 kts 219°
2026-05-05 11:37 21.08164 113.78261 32867 ft 486 kts 219°
2026-05-05 11:37 21.05274 113.76353 33222 ft 489 kts 216°
2026-05-05 11:38 21.02307 113.74568 33673 ft 489 kts 214°
2026-05-05 11:38 20.99312 113.72833 33998 ft 491 kts 213°
2026-05-05 11:38 20.96303 113.71100 34314 ft 491 kts 214°
2026-05-05 11:38 20.93307 113.69361 34654 ft 490 kts 214°
2026-05-05 11:39 20.90319 113.67608 34992 ft 489 kts 214°
2026-05-05 11:39 20.87383 113.65869 35322 ft 488 kts 214°
2026-05-05 11:39 20.84415 113.64100 35655 ft 488 kts 214°
2026-05-05 11:39 20.81452 113.62329 35964 ft 488 kts 214°
2026-05-05 11:40 20.78491 113.60557 36278 ft 488 kts 214°
2026-05-05 11:40 20.75529 113.58785 36588 ft 487 kts 214°
2026-05-05 11:40 20.72571 113.57017 36846 ft 488 kts 214°
2026-05-05 11:40 20.69607 113.55247 37123 ft 488 kts 214°
2026-05-05 11:41 20.66641 113.53477 37443 ft 488 kts 214°
2026-05-05 11:41 20.63682 113.51713 37750 ft 487 kts 214°
2026-05-05 11:41 20.60719 113.49948 38053 ft 486 kts 214°
2026-05-05 11:41 20.57768 113.48191 38338 ft 486 kts 214°
2026-05-05 11:42 20.54814 113.46432 38622 ft 485 kts 214°
2026-05-05 11:42 20.51862 113.44676 38863 ft 485 kts 214°
2026-05-05 11:42 20.48919 113.42925 39083 ft 485 kts 214°
2026-05-05 11:42 20.45967 113.41170 39245 ft 486 kts 214°
2026-05-05 11:43 20.43015 113.39415 39431 ft 486 kts 214°
2026-05-05 11:43 20.40057 113.37658 39641 ft 486 kts 213°
2026-05-05 11:43 20.37109 113.35908 39846 ft 486 kts 213°
2026-05-05 11:44 20.31196 113.32399 39952 ft 485 kts 213°
2026-05-05 11:44 20.25295 113.28901 39950 ft 485 kts 213°
2026-05-05 11:45 20.19424 113.25423 39947 ft 485 kts 213°
2026-05-05 11:45 20.13514 113.21925 39946 ft 485 kts 213°
2026-05-05 11:46 20.07600 113.18428 39945 ft 486 kts 213°
2026-05-05 11:46 20.01729 113.14960 39944 ft 486 kts 213°
2026-05-05 11:47 19.95813 113.11468 39942 ft 486 kts 213°
2026-05-05 11:47 19.89897 113.07979 39944 ft 486 kts 213°
2026-05-05 11:48 19.81019 113.02748 39941 ft 487 kts 213°
2026-05-05 11:48 19.75090 112.99260 39941 ft 487 kts 213°
2026-05-05 11:49 19.69160 112.95773 39938 ft 487 kts 213°
2026-05-05 11:49 19.63263 112.92309 39939 ft 487 kts 213°
2026-05-05 11:50 19.57330 112.88826 39935 ft 487 kts 213°
2026-05-05 11:50 19.51386 112.85340 39936 ft 488 kts 213°
2026-05-05 11:51 19.45442 112.81857 39935 ft 488 kts 213°
2026-05-05 11:51 19.39503 112.78380 39935 ft 488 kts 213°
2026-05-05 11:52 19.33593 112.74923 39936 ft 488 kts 213°
2026-05-05 11:52 19.27934 112.71027 39934 ft 485 kts 219°
2026-05-05 11:53 19.22422 112.66907 39926 ft 484 kts 219°
2026-05-05 11:53 19.16941 112.62761 39933 ft 484 kts 219°
2026-05-05 11:54 19.11456 112.58619 39927 ft 484 kts 219°
2026-05-05 11:54 19.05961 112.54483 39930 ft 484 kts 219°
2026-05-05 11:55 19.00462 112.50353 39928 ft 485 kts 219°
2026-05-05 11:55 18.94957 112.46221 39934 ft 485 kts 219°
2026-05-05 11:56 18.89471 112.42071 39936 ft 485 kts 219°
2026-05-05 11:56 18.84022 112.37951 39932 ft 485 kts 219°
2026-05-05 11:57 18.78530 112.33810 39933 ft 485 kts 219°
2026-05-05 11:57 18.73040 112.29676 39924 ft 485 kts 219°
2026-05-05 11:58 18.67661 112.25403 39932 ft 481 kts 226°
2026-05-05 11:58 18.63366 112.20081 39918 ft 475 kts 238°
2026-05-05 11:59 18.59646 112.14330 39923 ft 474 kts 239°
2026-05-05 11:59 18.56018 112.08513 39927 ft 474 kts 239°
2026-05-05 12:00 18.52404 112.02743 39928 ft 474 kts 239°
2026-05-05 12:00 18.48747 111.96953 39927 ft 474 kts 239°
2026-05-05 12:01 18.45078 111.91168 39921 ft 475 kts 239°
2026-05-05 12:01 18.41397 111.85369 39927 ft 476 kts 239°
2026-05-05 12:02 18.38338 111.80554 39929 ft 476 kts 239°
2026-05-05 12:02 18.34652 111.74756 39929 ft 476 kts 239°
2026-05-05 12:03 18.30344 111.67984 39926 ft 476 kts 239°
2026-05-05 12:03 18.26678 111.62227 39920 ft 476 kts 239°
2026-05-05 12:04 18.22988 111.56438 39930 ft 476 kts 239°
2026-05-05 12:04 18.19918 111.51626 39928 ft 476 kts 239°
2026-05-05 12:05 18.16216 111.45827 39922 ft 477 kts 238°
2026-05-05 12:05 18.12512 111.40031 39922 ft 478 kts 238°
2026-05-05 12:06 18.08803 111.34231 39926 ft 478 kts 238°
2026-05-05 12:06 18.05084 111.28422 39928 ft 478 kts 238°
2026-05-05 12:07 18.01368 111.22624 39925 ft 478 kts 238°
2026-05-05 12:07 17.97676 111.16867 39922 ft 478 kts 238°
2026-05-05 12:08 17.93957 111.11072 39922 ft 478 kts 238°
2026-05-05 12:08 17.90239 111.05286 39924 ft 477 kts 238°
2026-05-05 12:09 17.86528 110.99514 39928 ft 476 kts 238°
2026-05-05 12:09 17.82819 110.93750 39924 ft 476 kts 238°
2026-05-05 12:10 17.79132 110.88026 39922 ft 476 kts 238°
2026-05-05 12:10 17.75421 110.82269 39920 ft 476 kts 238°
2026-05-05 12:11 17.71707 110.76514 39922 ft 476 kts 238°
2026-05-05 12:11 17.67991 110.70760 39923 ft 476 kts 238°
2026-05-05 12:12 17.64272 110.65006 39923 ft 476 kts 238°
2026-05-05 12:12 17.60551 110.59253 39923 ft 476 kts 238°
2026-05-05 12:13 17.56831 110.53508 39922 ft 476 kts 238°
2026-05-05 12:13 17.53133 110.47801 39922 ft 476 kts 238°
2026-05-05 12:14 17.49387 110.42025 39922 ft 476 kts 238°
2026-05-05 12:14 17.45686 110.36324 39923 ft 476 kts 238°
2026-05-05 12:15 17.41959 110.30587 39924 ft 476 kts 238°
2026-05-05 12:15 17.38248 110.24838 39924 ft 476 kts 238°
2026-05-05 12:16 17.34571 110.19074 39921 ft 476 kts 238°
2026-05-05 12:16 17.30890 110.13310 39923 ft 475 kts 238°
2026-05-05 12:17 17.27207 110.07561 39925 ft 475 kts 238°
2026-05-05 12:17 17.23514 110.01806 39924 ft 476 kts 238°
2026-05-05 12:18 17.19823 109.96061 39921 ft 476 kts 238°
2026-05-05 12:18 17.16150 109.90347 39922 ft 476 kts 238°
2026-05-05 12:19 17.12456 109.84607 39922 ft 476 kts 238°
2026-05-05 12:19 17.08762 109.78870 39922 ft 476 kts 238°
2026-05-05 12:20 17.05062 109.73129 39922 ft 476 kts 238°
2026-05-05 12:20 17.01359 109.67388 39921 ft 476 kts 238°
2026-05-05 12:21 16.97653 109.61646 39923 ft 476 kts 238°
2026-05-05 12:21 16.93941 109.55902 39921 ft 476 kts 238°
2026-05-05 12:22 16.90255 109.50201 39922 ft 476 kts 238°
2026-05-05 12:22 16.86547 109.44471 39918 ft 476 kts 238°
2026-05-05 12:23 16.82833 109.38739 39924 ft 476 kts 238°
2026-05-05 12:23 16.79122 109.33012 39920 ft 476 kts 238°
2026-05-05 12:24 16.75420 109.27286 39921 ft 475 kts 238°
2026-05-05 12:24 16.71722 109.21573 39921 ft 475 kts 238°
2026-05-05 12:25 16.68013 109.15852 39925 ft 475 kts 238°
2026-05-05 12:25 16.64304 109.10136 39925 ft 475 kts 238°
2026-05-05 12:26 16.60594 109.04424 39927 ft 475 kts 238°
2026-05-05 12:26 16.56886 108.98721 39927 ft 475 kts 238°
2026-05-05 12:27 16.53177 108.93069 39915 ft 475 kts 237°
2026-05-05 12:27 16.49401 108.87416 39915 ft 475 kts 237°
2026-05-05 12:28 16.45622 108.81767 39915 ft 475 kts 237°
2026-05-05 12:28 16.41853 108.76123 39908 ft 474 kts 237°
2026-05-05 12:29 16.38092 108.70489 39902 ft 473 kts 237°
2026-05-05 12:29 16.34335 108.64858 39903 ft 473 kts 238°
2026-05-05 12:30 16.30657 108.59175 39913 ft 473 kts 238°
2026-05-05 12:30 16.27038 108.53512 39915 ft 473 kts 238°
2026-05-05 12:31 16.23382 108.47819 39912 ft 473 kts 238°
2026-05-05 12:31 16.19712 108.42130 39904 ft 473 kts 238°
2026-05-05 12:32 16.16043 108.36455 39914 ft 473 kts 238°
2026-05-05 12:32 16.12368 108.30776 39917 ft 473 kts 238°
2026-05-05 12:33 16.08695 108.25104 39900 ft 473 kts 238°
2026-05-05 12:33 16.05393 108.19264 39900 ft 470 kts 248°
2026-05-05 12:34 16.03275 108.12847 39913 ft 469 kts 254°
2026-05-05 12:34 16.01444 108.06327 39912 ft 469 kts 255°
2026-05-05 12:35 15.99653 107.99802 39918 ft 469 kts 255°
2026-05-05 12:35 15.97843 107.93289 39917 ft 469 kts 255°
2026-05-05 12:36 15.96020 107.86783 39929 ft 469 kts 255°
2026-05-05 12:36 15.94237 107.80261 39935 ft 469 kts 255°
2026-05-05 12:37 15.92466 107.73729 39947 ft 470 kts 255°
2026-05-05 12:37 15.90683 107.67177 39947 ft 472 kts 255°
2026-05-05 12:38 15.88860 107.60624 39950 ft 472 kts 254°
2026-05-05 12:38 15.86971 107.54087 39963 ft 472 kts 253°
2026-05-05 12:39 15.85092 107.47592 39964 ft 472 kts 254°
2026-05-05 12:39 15.83208 107.41052 39977 ft 472 kts 254°
2026-05-05 12:40 15.81327 107.34512 39976 ft 473 kts 253°
2026-05-05 12:40 15.79442 107.27964 39984 ft 473 kts 253°
2026-05-05 12:41 15.77290 107.21504 39985 ft 473 kts 245°
2026-05-05 12:41 15.73658 107.15829 39979 ft 475 kts 228°
2026-05-05 12:42 15.68836 107.11134 39977 ft 476 kts 222°
2026-05-05 12:42 15.63812 107.06647 39979 ft 478 kts 222°
2026-05-05 12:43 15.58773 107.02172 39957 ft 481 kts 222°
2026-05-05 12:43 15.53704 106.97631 39959 ft 482 kts 222°
2026-05-05 12:44 15.48629 106.93065 39954 ft 482 kts 222°
2026-05-05 12:44 15.43564 106.88506 39940 ft 482 kts 222°
2026-05-05 12:45 15.38533 106.83979 39939 ft 482 kts 222°
2026-05-05 12:45 15.33466 106.79427 39938 ft 482 kts 222°
2026-05-05 12:46 15.28386 106.74865 39933 ft 484 kts 222°
2026-05-05 12:46 15.23290 106.70292 39937 ft 485 kts 222°
2026-05-05 12:47 15.18182 106.65712 39937 ft 486 kts 222°
2026-05-05 12:47 15.13060 106.61122 39940 ft 487 kts 222°
2026-05-05 12:48 15.08803 106.57310 39942 ft 487 kts 222°
2026-05-05 12:48 15.03675 106.52721 39941 ft 487 kts 222°
2026-05-05 12:49 14.98558 106.48145 39922 ft 486 kts 222°
2026-05-05 12:49 14.93447 106.43577 39928 ft 485 kts 222°
2026-05-05 12:50 14.87515 106.38278 39911 ft 485 kts 222°
2026-05-05 12:50 14.83229 106.34464 39904 ft 485 kts 222°
2026-05-05 12:51 14.78155 106.29951 39906 ft 483 kts 222°
2026-05-05 12:51 14.73063 106.25424 39897 ft 482 kts 222°
2026-05-05 12:52 14.67977 106.20906 39897 ft 482 kts 222°
2026-05-05 12:52 14.62887 106.16388 39889 ft 482 kts 222°
2026-05-05 12:53 14.57797 106.11873 39889 ft 482 kts 222°
2026-05-05 12:53 14.52712 106.07365 39889 ft 482 kts 222°
2026-05-05 12:54 14.45076 106.00600 39886 ft 482 kts 222°
2026-05-05 12:55 14.40014 105.96119 39887 ft 483 kts 221°
2026-05-05 12:55 14.34903 105.91599 39886 ft 485 kts 222°
2026-05-05 12:56 14.29765 105.87057 39887 ft 486 kts 222°
2026-05-05 12:56 14.24621 105.82513 39883 ft 487 kts 222°
2026-05-05 12:57 14.19476 105.77970 39886 ft 487 kts 221°
2026-05-05 12:57 14.14331 105.73431 39886 ft 487 kts 221°
2026-05-05 12:58 14.09184 105.68893 39878 ft 487 kts 221°
2026-05-05 12:58 14.04021 105.64371 39878 ft 486 kts 221°
2026-05-05 12:59 13.98860 105.59881 39873 ft 485 kts 221°
2026-05-05 12:59 13.93737 105.55423 39873 ft 485 kts 221°
2026-05-05 13:00 13.85997 105.48684 39878 ft 485 kts 221°
2026-05-05 13:01 13.78311 105.41942 39876 ft 473 kts 224°
2026-05-05 13:01 13.76018 105.39591 39879 ft 457 kts 230°
2026-05-05 13:01 13.72763 105.34214 39874 ft 443 kts 251°
2026-05-05 13:02 13.71676 105.28031 39869 ft 440 kts 271°
2026-05-05 13:02 13.72789 105.21891 39870 ft 439 kts 291°
2026-05-05 13:03 13.75932 105.16534 39874 ft 441 kts 311°
2026-05-05 13:03 13.80728 105.12590 39873 ft 444 kts 330°
2026-05-05 13:04 13.86553 105.10472 39875 ft 448 kts 350°
2026-05-05 13:04 13.92735 105.10601 39882 ft 452 kts 11°
2026-05-05 13:05 13.98561 105.13041 39882 ft 456 kts 29°
2026-05-05 13:05 14.03947 105.16524 39884 ft 457 kts 31°
2026-05-05 13:06 14.09233 105.20119 39883 ft 458 kts 36°
2026-05-05 13:06 14.13806 105.24666 39884 ft 458 kts 53°
2026-05-05 13:07 14.15440 105.27488 39891 ft 459 kts 65°
2026-05-05 13:07 14.16493 105.30583 39889 ft 459 kts 76°
2026-05-05 13:07 14.16960 105.33838 39890 ft 460 kts 87°
2026-05-05 13:07 14.16852 105.37129 39889 ft 461 kts 97°
2026-05-05 13:08 14.16180 105.40360 39888 ft 461 kts 108°
2026-05-05 13:08 14.14961 105.43420 39889 ft 461 kts 118°
2026-05-05 13:08 14.13230 105.46199 39886 ft 461 kts 129°
2026-05-05 13:08 14.11036 105.48605 39886 ft 461 kts 139°
2026-05-05 13:09 14.08453 105.50552 39882 ft 460 kts 150°
2026-05-05 13:09 14.05575 105.51973 39877 ft 459 kts 161°
2026-05-05 13:09 14.02503 105.52821 39882 ft 458 kts 172°
2026-05-05 13:09 13.99330 105.53078 39878 ft 457 kts 183°
2026-05-05 13:10 13.93190 105.51835 39878 ft 453 kts 204°
2026-05-05 13:10 13.87682 105.48741 39877 ft 451 kts 214°
2026-05-05 13:11 13.82436 105.45173 39875 ft 451 kts 216°
2026-05-05 13:11 13.77445 105.41281 39876 ft 449 kts 225°
2026-05-05 13:12 13.73682 105.36217 39875 ft 445 kts 244°
2026-05-05 13:12 13.71845 105.30203 39872 ft 441 kts 264°
2026-05-05 13:13 13.72163 105.24000 39875 ft 438 kts 284°
2026-05-05 13:13 13.74629 105.18299 39879 ft 439 kts 304°
2026-05-05 13:14 13.76596 105.15889 39879 ft 441 kts 315°
2026-05-05 13:14 13.78951 105.13855 39878 ft 443 kts 324°
2026-05-05 13:14 13.84481 105.11077 39878 ft 446 kts 343°
2026-05-05 13:15 13.90647 105.10402 39881 ft 449 kts
2026-05-05 13:15 13.96672 105.12104 39881 ft 454 kts 25°
2026-05-05 13:16 14.02120 105.15432 39886 ft 456 kts 31°
2026-05-05 13:16 14.07446 105.19000 39886 ft 457 kts 31°
2026-05-05 13:17 14.12359 105.23077 39886 ft 457 kts 46°
2026-05-05 13:17 14.14322 105.25654 39887 ft 458 kts 57°
2026-05-05 13:17 14.15763 105.28572 39893 ft 458 kts 69°
2026-05-05 13:18 14.16624 105.31732 39893 ft 459 kts 80°
2026-05-05 13:18 14.16904 105.35008 39892 ft 460 kts 90°
2026-05-05 13:18 14.16608 105.38285 39892 ft 460 kts 101°
2026-05-05 13:18 14.15749 105.41463 39892 ft 460 kts 111°
2026-05-05 13:19 14.14352 105.44426 39892 ft 460 kts 122°
2026-05-05 13:19 14.12454 105.47082 39889 ft 460 kts 133°
2026-05-05 13:19 14.07437 105.51097 39884 ft 459 kts 154°
2026-05-05 13:20 14.04480 105.52325 39883 ft 458 kts 165°
2026-05-05 13:20 14.01364 105.52968 39884 ft 457 kts 176°
2026-05-05 13:20 13.95074 105.52470 39883 ft 454 kts 197°
2026-05-05 13:21 13.89407 105.49833 39883 ft 451 kts 212°
2026-05-05 13:21 13.84124 105.46343 39878 ft 451 kts 215°
2026-05-05 13:22 13.78974 105.42651 39881 ft 450 kts 220°
2026-05-05 13:22 13.74727 105.37994 39881 ft 446 kts 238°
2026-05-05 13:23 13.72231 105.32211 39878 ft 442 kts 257°
2026-05-05 13:23 13.71842 105.26003 39878 ft 438 kts 277°
2026-05-05 13:24 13.72478 105.22949 39878 ft 437 kts 288°
2026-05-05 13:24 13.73647 105.20066 39879 ft 437 kts 298°
2026-05-05 13:24 13.75312 105.17446 39885 ft 439 kts 309°
2026-05-05 13:24 13.77439 105.15187 39884 ft 441 kts 319°
2026-05-05 13:25 13.82647 105.11863 39883 ft 444 kts 337°
2026-05-05 13:25 13.88677 105.10479 39887 ft 448 kts 357°
2026-05-05 13:26 13.91792 105.10662 39887 ft 450 kts
2026-05-05 13:26 13.94795 105.11434 39886 ft 452 kts 18°
2026-05-05 13:26 14.00388 105.14437 39886 ft 455 kts 31°
2026-05-05 13:27 14.05720 105.17973 39889 ft 456 kts 31°
2026-05-05 13:27 14.10878 105.21766 39892 ft 457 kts 41°
2026-05-05 13:28 14.14849 105.26839 39890 ft 457 kts 62°
2026-05-05 13:28 14.16056 105.29834 39894 ft 458 kts 73°
2026-05-05 13:28 14.16702 105.33044 39894 ft 459 kts 84°
2026-05-05 13:29 14.16257 105.39587 39894 ft 459 kts 105°
2026-05-05 13:29 14.13592 105.45532 39889 ft 459 kts 126°
2026-05-05 13:30 14.11524 105.48025 39891 ft 459 kts 137°
2026-05-05 13:30 14.09042 105.50088 39886 ft 458 kts 147°
2026-05-05 13:30 14.06246 105.51642 39884 ft 457 kts 158°
2026-05-05 13:30 14.03213 105.52642 39886 ft 457 kts 169°
2026-05-05 13:31 14.00068 105.53048 39886 ft 456 kts 180°
2026-05-05 13:31 13.96909 105.52859 39883 ft 454 kts 191°
2026-05-05 13:31 13.91021 105.50781 39888 ft 450 kts 211°
2026-05-05 13:32 13.85678 105.47409 39884 ft 450 kts 215°
2026-05-05 13:32 13.80472 105.43804 39883 ft 450 kts 216°
2026-05-05 13:33 13.75849 105.39522 39888 ft 447 kts 232°
2026-05-05 13:33 13.72779 105.34043 39885 ft 442 kts 252°
2026-05-05 13:34 13.71753 105.27863 39883 ft 438 kts 271°
2026-05-05 13:34 13.72065 105.24749 39880 ft 437 kts 282°
2026-05-05 13:34 13.72926 105.21762 39879 ft 436 kts 292°
2026-05-05 13:35 13.76152 105.16550 39885 ft 439 kts 313°
2026-05-05 13:35 13.81029 105.12754 39884 ft 442 kts 332°
2026-05-05 13:36 13.86870 105.10765 39887 ft 446 kts 351°
2026-05-05 13:36 13.92023 105.10826 39889 ft 449 kts
2026-05-05 13:37 13.95045 105.11657 39891 ft 451 kts 19°
2026-05-05 13:37 13.97876 105.13058 39889 ft 453 kts 30°
2026-05-05 13:37 14.00420 105.14985 39889 ft 455 kts 41°
2026-05-05 13:37 14.02583 105.17367 39889 ft 457 kts 51°
2026-05-05 13:38 14.04298 105.20138 39891 ft 459 kts 62°
2026-05-05 13:38 14.05493 105.23193 39895 ft 461 kts 73°
2026-05-05 13:38 14.06122 105.26431 39894 ft 462 kts 84°
2026-05-05 13:38 14.06162 105.29693 39895 ft 463 kts 95°
2026-05-05 13:39 14.05602 105.32958 39887 ft 463 kts 106°
2026-05-05 13:39 14.04459 105.36058 39892 ft 464 kts 117°
2026-05-05 13:39 14.02784 105.38887 39894 ft 463 kts 128°
2026-05-05 13:39 14.00628 105.41351 39890 ft 463 kts 139°
2026-05-05 13:40 13.95212 105.44830 39890 ft 460 kts 160°
2026-05-05 13:40 13.92141 105.45732 39889 ft 458 kts 171°
2026-05-05 13:40 13.88978 105.46032 39891 ft 456 kts 182°
2026-05-05 13:41 13.85824 105.45728 39886 ft 454 kts 193°
2026-05-05 13:41 13.82839 105.44858 39884 ft 451 kts 203°
2026-05-05 13:41 13.76993 105.42487 39888 ft 460 kts 189°
2026-05-05 13:42 13.73763 105.42420 39886 ft 468 kts 173°
2026-05-05 13:42 13.70577 105.43221 39881 ft 476 kts 163°
2026-05-05 13:42 13.67353 105.44067 39877 ft 479 kts 175°
2026-05-05 13:42 13.64029 105.44073 39884 ft 479 kts 190°
2026-05-05 13:43 13.57501 105.42511 39880 ft 488 kts 197°
2026-05-05 13:43 13.50892 105.40837 39887 ft 489 kts 195°
2026-05-05 13:44 13.44313 105.39242 39883 ft 488 kts 195°
2026-05-05 13:44 13.37697 105.37621 39877 ft 488 kts 195°
2026-05-05 13:45 13.31081 105.35994 39879 ft 489 kts 195°
2026-05-05 13:45 13.24452 105.34362 39877 ft 490 kts 195°
2026-05-05 13:46 13.17816 105.32730 39877 ft 490 kts 195°
2026-05-05 13:46 13.11190 105.31100 39876 ft 490 kts 195°
2026-05-05 13:47 13.04558 105.29470 39876 ft 490 kts 195°
2026-05-05 13:47 12.97921 105.27840 39876 ft 491 kts 195°
2026-05-05 13:48 12.91318 105.26218 39876 ft 491 kts 195°
2026-05-05 13:48 12.84651 105.24582 39876 ft 491 kts 195°
2026-05-05 13:49 12.77993 105.22949 39876 ft 491 kts 195°
2026-05-05 13:49 12.71346 105.21320 39876 ft 491 kts 195°
2026-05-05 13:50 12.64732 105.19699 39875 ft 492 kts 195°
2026-05-05 13:50 12.58082 105.18071 39876 ft 492 kts 195°
2026-05-05 13:51 12.51419 105.16440 39875 ft 492 kts 195°
2026-05-05 13:51 12.44753 105.14810 39876 ft 492 kts 195°
2026-05-05 13:52 12.38108 105.13186 39493 ft 489 kts 195°
2026-05-05 13:52 12.34802 105.12378 38867 ft 489 kts 195°
2026-05-05 13:52 12.31481 105.11566 38119 ft 490 kts 194°
2026-05-05 13:53 12.28162 105.10755 37402 ft 490 kts 194°
2026-05-05 13:53 12.24847 105.09946 36686 ft 490 kts 194°
2026-05-05 13:53 12.21530 105.09135 35973 ft 490 kts 194°
2026-05-05 13:53 12.18324 105.08109 35161 ft 491 kts 204°
2026-05-05 13:54 12.15289 105.06388 34293 ft 494 kts 213°
2026-05-05 13:54 12.12450 105.04470 33362 ft 498 kts 214°
2026-05-05 13:54 12.09565 105.02487 32435 ft 500 kts 213°
2026-05-05 13:54 12.06673 105.00504 31513 ft 501 kts 213°
2026-05-05 13:55 12.03762 104.98516 30553 ft 504 kts 213°
2026-05-05 13:55 12.00834 104.96522 29474 ft 507 kts 213°
2026-05-05 13:55 11.97892 104.94520 28460 ft 508 kts 213°
2026-05-05 13:55 11.94966 104.92531 27750 ft 502 kts 213°
2026-05-05 13:56 11.92068 104.90566 27014 ft 497 kts 213°
2026-05-05 13:56 11.89200 104.88621 26273 ft 493 kts 213°
2026-05-05 13:56 11.86345 104.86681 25540 ft 490 kts 213°
2026-05-05 13:56 11.83554 104.84786 24814 ft 486 kts 213°
2026-05-05 13:57 11.81130 104.83141 24184 ft 483 kts 213°
2026-05-05 13:57 11.78385 104.81279 23470 ft 480 kts 213°
2026-05-05 13:57 11.75608 104.79396 22652 ft 475 kts 213°
2026-05-05 13:57 11.72899 104.77560 21926 ft 458 kts 213°
2026-05-05 13:58 11.70195 104.75962 21216 ft 442 kts 204°
2026-05-05 13:58 11.67291 104.75129 20528 ft 428 kts 187°
2026-05-05 13:58 11.64359 104.75205 19859 ft 417 kts 170°
2026-05-05 13:58 11.61639 104.76111 19175 ft 412 kts 154°
2026-05-05 13:59 11.57475 104.80029 17877 ft 412 kts 122°
2026-05-05 13:59 11.56077 104.82538 17176 ft 411 kts 122°
2026-05-05 14:00 11.52129 104.86654 15533 ft 410 kts 149°
2026-05-05 14:00 11.50406 104.87475 14879 ft 413 kts 161°
2026-05-05 14:00 11.46687 104.87942 13130 ft 403 kts 186°
2026-05-05 14:00 11.44070 104.87109 12343 ft 384 kts 207°
2026-05-05 14:01 11.42025 104.85509 11856 ft 359 kts 225°
2026-05-05 14:01 11.40624 104.83546 11471 ft 337 kts 241°
2026-05-05 14:01 11.39789 104.81353 10925 ft 322 kts 255°
2026-05-05 14:01 11.39153 104.79193 10180 ft 316 kts 249°
2026-05-05 14:02 11.38175 104.77215 9384 ft 311 kts 234°
2026-05-05 14:02 11.36843 104.75534 8601 ft 307 kts 227°
2026-05-05 14:02 11.35418 104.73945 7974 ft 299 kts 226°
2026-05-05 14:02 11.34006 104.72394 7579 ft 297 kts 226°
2026-05-05 14:03 11.32605 104.70854 7224 ft 295 kts 226°
2026-05-05 14:03 11.31211 104.69320 6890 ft 294 kts 226°
2026-05-05 14:03 11.29823 104.67792 6555 ft 293 kts 226°
2026-05-05 14:03 11.28315 104.66414 6202 ft 291 kts 211°
2026-05-05 14:04 11.26441 104.65737 5856 ft 285 kts 183°
2026-05-05 14:04 11.24516 104.65995 5548 ft 278 kts 156°
2026-05-05 14:04 11.22928 104.67062 5238 ft 273 kts 133°
2026-05-05 14:04 11.21574 104.68409 4923 ft 272 kts 134°
2026-05-05 14:05 11.20249 104.69779 4609 ft 270 kts 128°
2026-05-05 14:05 11.19437 104.71463 4304 ft 265 kts 98°
2026-05-05 14:05 11.19627 104.73296 4074 ft 262 kts 71°
2026-05-05 14:05 11.20452 104.74948 3722 ft 263 kts 54°
2026-05-05 14:06 11.21665 104.76343 3391 ft 263 kts 45°
2026-05-05 14:06 11.22922 104.77651 3148 ft 256 kts 47°
2026-05-05 14:06 11.24086 104.78917 2978 ft 234 kts 49°
2026-05-05 14:06 11.25138 104.80105 2712 ft 219 kts 49°
2026-05-05 14:07 11.26134 104.81220 2427 ft 206 kts 49°
2026-05-05 14:07 11.27077 104.82257 2208 ft 192 kts 49°
2026-05-05 14:07 11.27948 104.83220 1933 ft 176 kts 49°
2026-05-05 14:07 11.28746 104.84104 1710 ft 163 kts 50°
2026-05-05 14:08 11.29489 104.84927 1503 ft 153 kts 50°
2026-05-05 14:08 11.30185 104.85697 1311 ft 143 kts 50°
2026-05-05 14:08 11.30847 104.86432 1127 ft 139 kts 49°
2026-05-05 14:08 11.31496 104.87151 970 ft 139 kts 50°
2026-05-05 14:09 11.32145 104.87883 813 ft 140 kts 50°
2026-05-05 14:09 11.32803 104.88617 638 ft 140 kts 48°
2026-05-05 14:09 11.33473 104.89333 445 ft 140 kts 47°
2026-05-05 14:09 11.34121 104.90060 289 ft 139 kts 49°
2026-05-05 14:10 11.34785 104.90783 98 ft 139 kts 49°
2026-05-05 14:10 11.35420 104.91485 34 ft 125 kts 48°
2026-05-05 14:10 11.35886 104.92001 37 ft 73 kts 47°
2026-05-05 14:10 11.36136 104.92276 36 ft 45 kts 47°
2026-05-05 14:11 11.36281 104.92476 38 ft 32 kts 65°
2026-05-05 14:11 11.36321 104.92625 38 ft 12 kts 78°
2026-05-05 14:11 11.36340 104.92714 38 ft 15 kts 78°
2026-05-05 14:11 11.36374 104.92822 39 ft 18 kts 58°
2026-05-05 14:12 11.36449 104.92910 38 ft 14 kts 54°
2026-05-05 14:12 11.36445 104.92975 38 ft 9 kts 133°
2026-05-05 14:12 11.36387 104.93029 35 ft 13 kts 137°
2026-05-05 14:12 11.36317 104.93093 37 ft 10 kts 140°
2026-05-05 14:13 11.36254 104.93112 38 ft 11 kts 181°
2026-05-05 14:13 11.36211 104.93105 37 ft 3 kts 188°
2026-05-05 14:13 11.36188 104.93113 37 ft 3 kts 142°
2026-05-05 14:13 11.36187 104.93124 37 ft 1 kts 97°
2026-05-05 14:14 11.36184 104.93143 37 ft 5 kts 96°
2026-05-05 14:14 11.36178 104.93182 37 ft 3 kts 99°
2026-05-05 14:14 11.36176 104.93198 37 ft 1 kts 99°
2026-05-05 14:14 11.36175 104.93203 37 ft 0 kts 99°